Location: Usti nad Orlici
(49.9830°N, 16.4000°E)
Time: 18:02:16
(UTC+02:00)

ISS - Pass Details

Date: 28 March 2019
Orbit: 408 x 410 km, 51.6° (Epoch: 27 April)

Event Time Altitude Azimuth Distance (km) Brightness Sun altitude
Rises 19:18:02 0° 261° (W) 2,334 1.3 -10.0°
Reaches altitude 10° 19:20:07 10° 264° (W) 1,474 0.2 -10.4°
Maximum altitude 19:23:25 73° 349° (N) 432 -3.6 -10.9°
Enters shadow 19:26:11 14° 74° (ENE) 1,260 -1.8 -11.3°
